SJX332 VMMC-RCMQ

Flight info

Callsign SJX332
Flight time N/A
Altitude 37000
Route CONGA DCT ENVAR M750 ANLOT W4 FATAN
Aircraft A21N/M-SDE2E3FGHIRWXY/LB1

Departure

Time 2026-04-22 12:06
Airport Macau International Airport (VMMC)

Arrival

Time N/A
Airport Taichung International Airport / Ching Chuang Kang Air Base (RCMQ)
Time Latitude Longitude Altitude Speed Heading
2026-04-22 11:48 22.15923 113.57632 31 ft 0 kts 284°
2026-04-22 11:58 22.15922 113.57636 31 ft 3 kts 284°
2026-04-22 11:58 22.15914 113.57664 31 ft 4 kts 292°
2026-04-22 11:59 22.15907 113.57681 31 ft 4 kts 301°
2026-04-22 11:59 22.15884 113.57706 31 ft 4 kts 353°
2026-04-22 11:59 22.15874 113.57707 31 ft 1 kts 16°
2026-04-22 12:02 22.15904 113.57716 31 ft 12 kts 14°
2026-04-22 12:02 22.15998 113.57740 31 ft 14 kts 14°
2026-04-22 12:03 22.16085 113.57776 31 ft 13 kts 48°
2026-04-22 12:03 22.16119 113.57862 31 ft 12 kts 71°
2026-04-22 12:03 22.16150 113.57956 31 ft 16 kts 71°
2026-04-22 12:03 22.16195 113.58095 31 ft 21 kts 72°
2026-04-22 12:04 22.16239 113.58237 31 ft 20 kts 71°
2026-04-22 12:04 22.16284 113.58378 31 ft 20 kts 71°
2026-04-22 12:04 22.16328 113.58516 31 ft 19 kts 71°
2026-04-22 12:04 22.16345 113.58616 33 ft 7 kts 118°
2026-04-22 12:05 22.16314 113.58640 32 ft 5 kts 155°
2026-04-22 12:05 22.16236 113.58667 33 ft 33 kts 161°
2026-04-22 12:05 22.16006 113.58752 32 ft 71 kts 161°
2026-04-22 12:05 22.15345 113.58998 30 ft 131 kts 162°
2026-04-22 12:06 22.14322 113.59371 91 ft 170 kts 165°
2026-04-22 12:06 22.12743 113.59940 378 ft 197 kts 163°
2026-04-22 12:06 22.11390 113.60473 590 ft 216 kts 162°
2026-04-22 12:06 22.09916 113.61038 884 ft 230 kts 162°
2026-04-22 12:07 22.08435 113.61599 1655 ft 222 kts 165°
2026-04-22 12:07 22.07460 113.61966 1967 ft 229 kts 165°
2026-04-22 12:07 22.05897 113.62549 2248 ft 245 kts 165°
2026-04-22 12:07 22.04253 113.63164 2839 ft 254 kts 164°